Zurück zum Katalog

DELTA 1 R/B

CEP 1

AktivSSO
NORAD 4794·ROCKET BODY·🇺🇸 United States

Gestartet Dec 11, 1970 von Vandenberg Space Force Base

Loading…

Nächste Überflüge (nächste 24 Stunden)

TLE

AktuellSource: Space-Track

Epoche: Sep 14, 2026, 10:09 UTC

1 04794U 70106B   26257.42307267 -.00000044  00000-0 -13811-4 0  9999
2 04794 101.3053 261.3278 0036772 171.4958 356.0821 12.53276070942595

Verfolge DELTA 1 R/B in Echtzeit mit AllMySat

Download on the App Store